User: anonymous   Login
Location: Argonnex
(45.9500°N, 6.1333°E)
Time: 20:57:38
(UTC+00:00)
Language:

THORAD AGENA D DEB - Orbit

View from above orbital plane
View from above orbital plane
View from above satellite
View from above satellite

Ground track
Ground track

The orbit data is extracted from the following two-line orbital elements,

1 26821U 70025QQ  24056.97728993  .00009838  00000-0  29813-2 0  9997
2 26821 100.0081 241.6689 0065673 313.0821 200.9933 14.41251615584353
Epoch (UTC): 25 February 2024 23:27:17
Eccentricity: 0.0065673
inclination: 100.0081°
perigee height: 707 km
apogee height: 801 km
right ascension of ascending node: 241.6689°
argument of perigee: 313.0821°
revolutions per day: 14.41251615
mean anomaly at epoch: 200.9933°
orbit number at epoch: 58435

The dashed part of the orbit path shows where the satellite is in the earth's shadow,  

DLR